Theta_e
342 343 347 351 344 342 343 343 345 344 345 346 346 348 349 349 352 352 352 355 357 359 361 364 363 363 363 361 362 361 360 360 360 361 360 360 360 360 362 361 361 362 356 358 359 359 362 364 364 363 366 368 368 372 375 373 370 367 368 376 368 370 371
340 340 344 348 346 342 343 345 346 344 345 346 347 349 350 350 352 351 353 355 356 357 360 361 363 363 364 364 363 363 362 360 361 364 361 362 364 364 362 362 360 360 364 361 365 363 364 365 366 365 366 369 366 372 372 370 370 371 366 367 365 369 369
340 340 342 345 348 343 344 343 345 346 345 346 348 349 350 353 352 353 354 354 355 357 358 359 363 362 364 364 364 362 362 360 360 360 360 359 361 360 362 363 362 360 360 361 363 359 364 366 367 367 368 365 363 369 372 370 372 365 369 373 366 363 364
340 339 342 344 348 352 346 344 344 345 346 348 350 350 351 352 353 354 353 356 354 354 356 355 358 358 360 363 363 364 362 361 360 358 357 359 360 359 361 363 364 360 358 359 359 360 359 361 364 367 367 367 366 365 366 367 365 367 369 370 363 366 371
341 342 342 342 344 345 343 342 343 345 347 351 353 353 352 353 353 353 354 355 351 352 352 352 353 354 357 360 359 360 361 360 360 358 357 357 361 360 359 359 358 360 360 360 361 362 366 363 362 365 364 368 367 368 368 367 367 369 370 370 363 364 364
341 340 340 341 343 346 343 342 343 344 347 349 352 352 353 353 352 353 355 354 352 353 354 352 350 352 354 355 356 356 360 361 362 361 358 358 360 358 358 359 355 357 359 359 357 360 364 366 363 363 364 362 363 363 365 366 364 367 367 370 364 361 358
342 341 341 344 346 346 347 347 345 347 349 351 353 354 354 352 355 357 359 355 355 355 354 352 352 351 352 354 355 356 356 359 359 358 358 357 357 359 359 359 361 357 359 361 359 361 362 363 365 365 364 363 362 361 362 364 365 363 366 367 365 367 366
341 342 345 345 347 345 343 346 348 349 351 353 352 352 354 354 361 359 353 355 356 356 354 354 353 355 357 354 354 354 354 355 357 358 357 355 355 356 357 359 360 361 362 358 360 363 358 363 363 364 364 359 360 363 361 365 367 364 364 366 363 362 356
344 344 345 347 348 347 348 349 351 351 351 352 354 356 356 357 359 359 360 360 359 357 357 355 354 356 357 354 355 355 353 354 355 356 354 353 352 351 354 357 358 361 359 358 357 361 360 358 360 362 363 360 363 361 362 367 366 365 363 364 366 364 362
344 346 347 347 349 348 349 350 351 351 350 352 353 353 354 355 358 359 360 360 362 362 362 361 359 357 360 361 359 357 354 355 354 353 354 351 351 351 352 354 356 358 358 357 357 357 359 360 361 362 365 364 360 363 364 366 366 364 363 364 366 366 364
343 343 345 346 348 349 349 349 351 353 354 355 355 355 355 356 356 357 358 361 361 362 363 364 363 362 359 361 361 361 356 354 354 353 353 352 350 350 350 352 354 357 358 356 356 355 358 360 359 359 365 361 362 366 365 365 366 364 362 363 365 366 365
343 345 345 345 346 347 347 349 349 350 351 354 357 356 355 355 356 357 359 361 362 363 365 364 365 362 361 363 362 361 360 357 355 354 353 352 352 350 350 351 351 355 356 356 358 355 355 356 355 358 363 364 363 364 364 365 366 365 366 364 364 363 364
343 343 345 341 342 342 345 346 347 346 345 346 354 356 354 354 357 357 358 359 362 364 365 365 365 364 363 363 363 361 360 357 356 356 354 353 353 352 352 351 350 351 353 354 354 355 352 354 356 357 360 364 362 361 364 365 365 367 367 365 365 363 363
342 342 344 344 342 343 342 345 347 347 344 346 347 351 349 348 349 351 353 357 360 360 361 365 365 365 364 363 362 362 359 357 355 355 358 358 359 356 353 352 352 352 354 354 354 354 353 352 353 355 359 361 361 362 364 365 365 366 369 365 364 363 364
340 341 343 344 342 342 341 345 346 348 348 348 349 349 350 350 349 349 350 350 351 353 357 360 361 364 364 364 363 362 363 361 361 359 360 362 363 362 358 356 354 353 354 356 356 354 354 354 353 354 355 358 358 358 358 359 359 361 362 363 364 364 361
337 338 339 340 342 343 345 346 346 348 347 348 348 349 350 349 349 351 350 351 354 355 356 356 357 356 357 358 360 363 365 366 366 365 365 362 362 365 365 361 360 356 355 355 356 357 358 358 356 354 353 355 358 357 354 354 356 362 363 362 362 360 359
336 336 337 338 340 342 343 346 348 349 350 350 349 349 349 349 349 350 351 353 354 355 357 357 355 355 355 355 357 360 362 361 361 362 360 362 366 367 367 363 362 360 360 357 357 358 362 359 357 355 354 351 352 355 353 352 353 352 344 348 354 363 361
334 336 336 336 337 339 340 341 342 343 343 346 348 350 350 351 351 350 350 351 352 354 357 357 355 354 354 354 356 356 356 356 356 355 355 357 357 360 362 365 366 364 363 360 357 359 355 354 354 357 354 354 354 354 353 353 355 337 340 344 345 358 358
334 335 335 336 337 338 338 339 341 342 342 343 343 344 347 349 349 349 350 351 353 355 354 354 354 352 352 354 354 355 355 356 355 354 354 354 355 356 357 357 360 363 360 359 360 359 359 359 354 354 353 352 352 350 350 349 340 335 338 340 340 343 358
334 335 336 336 336 336 336 335 335 336 338 339 341 343 345 346 346 346 347 348 350 351 352 352 350 350 351 354 355 356 354 354 352 353 354 356 356 357 357 357 357 360 362 361 361 351 349 353 356 355 359 354 353 357 351 352 339 335 335 336 336 338 348
333 333 334 333 334 334 334 334 333 335 336 337 339 340 341 342 342 343 344 346 346 347 348 349 349 349 349 350 352 353 354 351 348 347 351 352 351 350 350 350 357 361 360 362 355 351 351 351 353 353 356 355 354 353 350 349 334 332 332 332 332 334 347
331 331 331 332 333 334 334 334 334 333 334 337 337 337 338 338 340 340 340 342 342 343 343 344 343 343 344 343 344 346 347 348 349 348 348 348 348 348 348 349 359 361 363 358 356 355 357 356 346 342 348 355 356 353 352 344 324 329 330 328 330 336 353
331 330 331 332 332 332 334 334 334 334 336 337 335 335 335 337 338 338 338 338 338 338 337 338 338 340 341 342 344 345 346 347 347 343 344 345 347 344 344 349 357 358 360 355 352 351 351 350 348 350 348 347 351 354 355 348 329 322 322 324 325 339 356
331 330 329 329 330 331 332 332 333 335 335 334 334 335 335 336 336 336 335 336 337 335 333 333 334 336 338 339 341 344 344 345 345 345 346 346 345 346 348 348 350 352 357 354 351 350 351 353 352 352 352 349 349 350 350 347 330 318 318 321 323 335 356
325 326 326 326 325 325 326 327 329 330 331 330 329 333 333 334 335 335 333 335 335 335 334 334 333 333 335 336 339 342 344 344 344 343 342 342 344 346 346 348 350 351 355 356 354 353 354 354 351 354 352 352 350 349 347 344 335 318 317 318 321 340 359
320 320 322 324 326 326 326 326 324 323 324 325 326 327 329 330 330 331 331 331 333 331 330 332 334 335 335 337 338 339 340 341 343 343 344 343 342 343 345 346 348 349 350 349 348 347 346 349 351 351 349 348 347 344 344 342 337 329 314 316 319 323 350
320 320 319 319 320 323 320 319 318 318 319 321 324 326 327 328 327 326 327 328 329 329 330 334 335 336 336 336 336 336 337 337 339 339 341 343 343 344 345 347 348 348 346 345 346 346 345 347 345 344 343 344 346 345 344 342 340 332 315 313 315 319 332
320 318 318 320 322 321 320 320 320 321 320 321 321 322 324 327 327 327 326 325 324 327 330 332 334 335 334 336 336 337 337 337 338 339 340 342 344 344 343 344 346 348 347 345 346 346 346 345 345 344 343 343 345 345 343 343 342 340 323 316 313 315 320
320 320 321 320 320 320 318 316 317 318 321 322 323 324 324 325 325 325 325 324 325 325 327 329 330 330 331 333 334 336 337 337 338 337 338 338 340 341 342 345 346 346 347 347 346 345 345 345 345 344 344 345 346 345 342 341 341 337 339 322 315 313 316
321 321 321 322 321 321 321 319 319 320 321 321 322 323 324 324 324 325 325 324 326 327 328 328 329 330 329 328 329 332 334 336 337 338 337 338 339 339 339 341 343 343 344 344 343 343 342 342 342 342 341 342 343 342 342 340 339 336 337 333 320 318 315
317 316 317 318 318 319 320 322 322 320 321 321 322 324 325 324 323 324 324 327 329 328 328 328 329 327 326 327 327 327 327 330 334 336 337 337 337 337 337 338 340 338 340 341 340 340 340 341 342 342 342 341 342 342 341 340 340 339 338 334 329 321 320
318 316 314 314 316 318 318 319 319 318 319 320 322 322 325 323 322 321 323 326 327 330 329 328 327 327 327 326 325 326 326 327 327 328 332 335 336 336 336 336 336 336 337 337 337 339 337 338 337 338 340 340 340 339 339 340 340 340 340 339 340 333 322
319 317 316 316 318 320 319 318 316 316 318 317 321 323 323 322 322 324 325 325 324 325 328 329 328 327 327 327 326 325 325 323 325 325 325 327 329 333 334 334 333 336 336 335 334 335 334 335 336 334 333 336 337 337 339 339 339 337 336 336 334 334 338
319 318 320 321 321 321 320 319 318 318 317 317 320 321 322 321 321 322 323 323 323 324 325 324 325 325 325 324 324 324 325 323 322 326 325 323 326 325 327 329 332 331 329 328 328 329 330 331 332 331 332 331 332 335 337 337 332 328 328 329 329 330 333
321 322 323 322 322 322 320 320 320 319 316 316 318 318 318 320 321 322 322 323 324 325 324 324 325 325 326 326 326 324 326 327 325 324 326 327 328 324 323 321 324 329 328 323 324 323 323 328 330 331 331 333 333 333 334 333 326 321 308 315 305 313 321
321 322 322 323 323 323 322 321 321 320 320 319 318 316 315 316 318 320 321 324 324 324 323 323 324 325 323 324 322 323 325 326 325 323 324 325 326 328 323 319 310 317 324 323 319 307 303 308 322 323 328 331 332 329 327 324 319 304 298 297 297 297 297
324 322 320 320 319 319 320 319 320 320 320 320 318 317 317 316 316 316 317 320 322 322 323 322 323 323 321 322 319 318 323 323 323 326 325 325 324 326 326 324 322 302 304 316 317 305 295 295 297 301 307 321 328 320 308 308 302 297 296 296 296 295 294
322 322 321 321 322 319 319 318 319 319 319 319 318 317 318 316 316 316 316 318 319 320 322 323 323 322 320 320 321 322 322 323 322 324 323 324 325 327 324 326 326 322 307 299 302 300 296 295 295 297 300 301 309 324 328 314 304 297 296 296 296 295 294
Wind_Speed
18 14 9 6 13 15 16 15 15 14 14 14 14 14 14 12 11 11 11 12 13 13 12 11 10 9 10 9 9 8 8 8 8 7 7 6 5 6 6 5 6 5 5 6 4 5 5 5 4 6 5 6 5 5 4 4 4 4 2 1 3 3 1
16 16 13 7 7 14 16 16 15 14 14 14 14 14 13 13 12 11 11 12 13 13 13 12 11 10 10 9 9 9 9 9 8 7 7 6 5 4 6 6 5 5 4 2 5 5 6 6 5 5 6 6 6 6 6 5 5 4 4 4 3 1 2
16 17 16 11 6 9 12 14 15 14 15 14 14 14 13 12 12 12 12 13 13 13 13 12 12 10 10 9 9 10 10 9 9 9 9 8 7 8 6 5 5 5 6 6 5 6 6 7 7 6 6 6 7 6 5 6 5 5 4 4 3 3 3
15 17 17 14 9 7 8 11 12 13 14 15 14 15 14 13 12 12 12 13 14 14 14 13 13 12 11 10 10 10 10 10 9 9 9 8 10 9 8 7 5 6 7 6 6 6 7 8 8 7 7 6 6 7 7 6 7 7 6 6 4 4 3
14 14 16 15 14 12 11 11 13 13 14 14 14 14 14 13 12 13 13 13 14 15 14 14 13 12 10 11 9 9 10 11 10 9 8 8 7 8 8 8 7 7 2 2 4 7 3 5 7 7 7 7 7 6 7 6 6 6 6 6 6 5 5
13 14 15 17 15 13 14 15 15 16 15 15 15 14 13 13 11 13 13 13 12 12 12 13 13 12 12 12 10 9 9 10 9 9 8 8 8 8 8 8 10 9 6 5 6 7 7 6 6 7 8 8 8 8 8 8 7 7 7 6 6 6 6
11 11 13 15 14 13 10 9 13 13 12 13 12 11 10 11 10 8 7 9 11 11 11 12 11 11 11 10 10 10 11 11 10 11 10 10 9 9 8 8 8 9 9 6 10 8 8 8 7 8 8 8 8 8 6 7 7 7 7 6 6 6 5
14 11 12 12 11 14 13 13 10 10 8 9 11 12 12 9 12 12 14 11 11 10 10 10 10 10 10 10 10 11 11 11 11 10 10 11 11 11 9 9 9 7 4 6 8 5 3 7 8 8 8 9 8 6 8 7 7 7 7 7 7 7 8
14 15 13 14 12 13 11 13 11 11 10 9 9 8 9 10 9 8 9 8 10 11 11 11 10 8 8 8 9 10 11 10 11 10 12 12 11 12 11 10 11 10 10 10 11 9 9 6 8 8 8 8 6 10 8 7 8 8 7 7 8 8 7
14 11 9 10 11 11 9 11 12 12 12 10 9 8 8 7 7 7 7 8 8 9 10 10 9 8 8 8 9 10 10 10 9 11 12 12 11 12 12 11 11 11 11 12 10 10 10 9 4 9 8 7 5 8 8 8 8 8 8 8 8 8 8
10 13 11 9 13 12 13 11 10 10 9 9 7 6 7 7 7 6 7 8 8 8 9 8 8 8 10 9 9 9 9 10 10 11 11 12 11 13 13 12 11 9 9 10 11 10 8 8 10 9 8 9 10 9 9 9 9 9 9 9 8 8 8
8 10 10 10 8 9 12 12 10 9 9 5 5 7 7 6 7 6 7 7 7 7 8 8 7 8 9 9 10 9 10 10 10 11 11 11 11 12 12 12 12 8 6 6 10 9 12 13 11 11 10 9 8 10 9 9 9 9 9 9 9 8 8
7 9 10 12 9 8 7 12 13 12 12 10 6 5 4 6 6 5 5 7 7 6 7 8 8 8 9 9 10 10 11 12 10 10 10 11 11 10 11 11 12 12 13 13 15 12 11 9 9 9 10 10 11 10 10 10 9 8 9 9 8 8 8
4 7 10 10 10 11 11 12 12 14 14 12 9 6 5 4 3 2 3 3 3 6 7 5 6 8 8 8 9 10 11 12 12 11 10 9 8 9 10 10 11 11 11 11 11 11 12 12 13 10 10 12 10 10 9 10 10 10 9 9 9 9 8
6 7 7 7 10 9 7 7 11 13 13 13 12 10 9 7 6 5 5 5 5 4 5 5 6 7 8 8 8 9 9 9 9 9 9 8 7 8 9 9 9 10 10 10 10 10 11 11 10 12 11 8 12 12 11 10 10 9 9 9 9 8 9
5 7 7 8 8 7 8 9 9 9 11 11 12 11 9 8 8 7 8 8 7 7 6 5 6 8 7 8 8 7 5 4 3 4 6 8 9 8 8 9 9 10 10 11 11 10 9 9 10 9 10 12 9 10 11 10 8 8 8 9 8 9 7
9 9 9 10 9 9 7 6 6 7 7 7 9 11 11 10 9 8 8 7 8 7 6 6 7 8 9 9 8 7 5 5 5 5 4 4 4 5 7 9 9 9 9 10 10 10 8 8 11 10 5 8 11 10 9 10 7 10 12 14 6 6 7
8 8 10 10 9 9 8 8 8 9 7 5 7 8 8 8 9 9 9 9 9 8 7 8 9 10 10 10 8 7 7 7 6 5 6 5 7 6 6 5 6 8 8 9 10 7 8 8 8 8 11 9 6 10 12 10 8 14 15 15 12 9 7
7 7 7 8 9 8 8 9 8 7 7 6 6 5 3 3 4 3 4 7 8 7 8 8 9 10 11 10 9 9 9 8 8 8 8 8 8 9 8 8 8 8 8 9 9 8 8 9 9 10 11 11 11 10 9 10 11 16 16 14 13 10 8
7 7 8 9 9 9 8 8 8 8 8 8 8 7 6 6 5 5 5 5 3 4 6 6 8 9 8 7 7 7 7 7 8 8 8 8 8 8 8 10 11 9 8 6 2 5 8 12 11 9 9 10 10 9 8 6 11 14 14 13 11 9 6
8 9 10 10 9 9 10 11 10 9 9 8 7 6 6 6 5 6 6 5 5 4 4 4 5 4 3 3 2 2 3 5 5 8 5 4 4 4 5 11 10 8 7 2 1 3 5 9 12 11 10 11 10 10 9 5 11 11 11 10 10 7 5
8 8 10 9 10 9 10 10 10 10 10 9 9 8 8 7 7 7 6 4 5 5 6 6 6 5 4 5 5 4 2 2 5 1 1 0 2 5 10 12 9 6 5 2 3 6 6 5 3 6 14 10 10 9 9 7 11 8 4 7 8 7 5
10 10 10 10 10 11 10 10 10 10 9 9 9 9 9 8 8 8 8 8 8 8 7 7 7 6 6 6 4 3 2 2 3 1 2 2 1 2 5 7 6 5 4 4 6 9 8 5 4 4 2 11 14 11 4 8 10 10 8 3 4 4 5
11 12 11 11 9 9 10 10 9 9 10 12 10 9 9 8 9 9 9 8 8 9 9 8 8 7 6 5 4 4 4 5 4 4 6 6 6 3 4 2 2 4 4 7 7 6 6 6 5 3 1 0 4 11 9 7 9 11 9 8 7 8 6
10 11 11 11 11 11 10 9 9 9 10 10 11 9 10 8 7 8 8 8 8 8 8 8 9 8 7 6 5 4 4 4 5 6 6 5 5 4 3 1 2 4 3 2 2 2 4 6 6 5 1 1 4 8 2 4 9 12 12 12 10 7 4
10 10 10 11 12 11 10 9 10 10 11 11 9 9 9 9 8 8 7 7 8 8 8 8 8 7 7 6 6 5 5 6 6 5 4 5 4 3 3 3 2 2 3 4 4 2 4 3 3 5 5 5 7 7 6 5 5 7 10 10 11 11 7
12 12 12 12 11 10 10 10 10 10 11 10 10 9 9 8 8 9 8 8 8 9 8 7 6 7 7 6 6 6 5 6 6 6 5 5 4 2 2 1 2 3 5 5 5 3 1 4 6 5 4 6 7 6 3 2 4 6 10 10 10 12 11
12 11 11 11 11 10 9 9 9 9 10 9 9 8 7 8 8 8 8 8 9 8 7 7 7 7 7 7 6 6 6 6 6 6 6 5 5 4 3 2 1 4 4 3 4 7 6 6 4 3 4 2 4 7 6 5 6 4 7 10 10 10 12
11 9 10 9 8 8 9 9 9 10 10 8 8 8 8 9 8 7 7 8 8 7 7 7 7 7 7 6 6 5 6 5 6 5 5 5 6 6 5 4 6 5 3 4 6 7 7 7 7 6 5 5 6 6 6 5 4 6 6 8 9 8 6
10 10 9 11 15 17 11 8 8 8 8 8 8 8 8 8 7 6 7 8 7 7 6 6 5 5 5 4 4 4 4 4 5 5 4 5 5 6 5 5 6 6 6 5 5 5 5 5 5 6 6 7 8 7 7 5 5 5 7 6 4 3 3
11 10 9 8 10 12 13 14 10 8 8 8 8 7 7 6 7 7 7 6 5 5 6 5 5 5 4 4 3 3 3 3 3 4 4 3 4 4 5 5 4 5 5 5 5 5 5 4 5 5 6 5 6 6 5 5 5 5 4 4 4 3 3
11 11 10 9 8 8 6 7 10 12 10 10 9 7 6 6 6 6 5 5 6 6 5 4 4 4 4 4 3 3 2 2 4 5 4 4 3 4 3 4 4 4 3 4 4 3 3 3 4 4 4 4 4 4 4 4 4 5 4 1 1 4 7
11 10 10 9 8 7 5 6 5 4 5 8 8 7 6 5 4 3 4 6 7 7 5 4 2 3 3 3 4 4 3 6 6 4 4 4 3 4 3 2 2 2 2 1 2 3 2 3 2 3 3 3 3 2 3 3 2 4 4 5 5 6 5
9 9 9 8 7 5 4 4 5 5 6 6 6 8 8 6 6 6 7 7 7 4 4 4 6 4 4 5 5 4 4 4 4 4 4 4 5 6 5 4 4 4 5 7 7 6 2 2 3 1 1 0 1 2 2 3 8 7 6 5 6 6 6
8 7 7 7 6 6 5 5 5 6 6 5 5 7 7 7 6 5 5 5 4 2 3 3 2 3 2 2 3 3 2 2 3 4 4 4 5 6 6 7 7 5 6 8 7 6 7 8 5 5 5 4 4 3 3 6 6 4 4 4 4 4 5
7 8 7 6 5 4 4 4 4 5 5 5 5 4 2 3 5 7 6 4 4 4 4 2 1 1 3 4 5 5 5 4 5 5 5 5 4 6 6 9 10 9 6 6 7 8 9 8 6 5 5 6 6 6 4 5 4 1 3 6 5 5 7
6 8 8 7 7 6 5 5 5 5 5 5 4 4 3 3 3 4 5 6 5 5 3 1 1 3 4 5 6 6 7 5 5 4 4 5 5 4 3 5 5 10 12 9 7 7 8 9 7 8 8 7 4 8 12 9 7 10 8 6 4 3 4
8 5 3 2 4 7 7 6 5 5 5 5 4 4 2 2 3 3 3 5 6 6 5 4 3 3 5 5 5 4 5 5 4 4 4 3 3 3 3 1 5 4 5 7 6 5 5 8 9 7 8 9 9 6 3 9 10 9 9 8 8 8 8
Wind_Direction
191 198 210 253 197 189 182 185 184 181 183 181 184 183 181 181 174 172 169 167 174 176 177 179 184 181 181 183 186 179 187 191 181 184 190 190 191 186 184 185 183 209 186 193 188 194 199 205 189 197 167 181 196 178 188 187 197 208 195 260 204 233 303
186 191 200 223 215 193 183 184 185 181 183 183 183 182 182 181 176 177 173 169 176 178 177 177 184 185 183 188 185 181 188 192 194 187 191 182 185 194 193 187 181 192 223 193 133 228 184 184 192 198 182 184 198 186 187 194 197 214 188 185 221 227 259
181 184 193 191 214 194 184 183 188 184 182 186 180 184 184 179 178 181 175 172 177 178 178 179 184 184 187 187 188 187 189 191 193 195 197 184 189 191 193 185 196 175 214 206 184 197 192 192 190 192 195 199 192 188 201 187 194 195 188 172 206 213 216
180 180 185 188 188 204 194 186 191 188 185 183 181 185 182 181 185 181 181 178 179 180 181 183 184 188 186 187 190 190 192 193 197 198 207 195 188 204 185 188 207 203 195 202 200 231 155 217 177 187 202 197 207 192 196 197 196 191 187 194 218 183 193
175 174 176 183 188 192 200 195 184 195 189 184 182 187 183 180 189 181 184 189 186 183 185 187 189 189 189 189 195 191 193 195 198 205 205 212 201 201 197 188 192 221 232 275 223 205 236 198 184 190 191 201 203 198 194 198 201 182 188 193 213 167 210
171 176 176 177 184 184 190 194 189 191 189 183 187 183 182 182 188 190 186 183 197 186 186 191 191 185 192 192 196 192 191 195 197 203 207 210 207 206 205 200 194 181 217 157 277 236 199 212 212 194 195 196 206 199 200 192 203 192 189 205 212 203 214
169 178 175 174 174 175 186 194 182 186 185 182 183 181 181 183 186 192 173 201 196 182 186 195 195 186 195 193 194 194 195 193 197 200 203 206 204 212 209 204 215 190 181 190 214 221 208 203 219 209 203 208 199 208 188 208 205 203 193 201 208 226 212
160 171 171 165 173 180 182 180 185 165 170 172 176 179 177 185 163 202 174 188 198 177 186 197 196 194 190 197 194 198 197 196 197 203 203 208 204 209 205 212 196 204 136 213 232 146 280 248 214 211 211 207 195 234 203 195 208 212 201 199 207 212 214
160 160 167 164 171 168 171 166 160 152 150 156 164 165 166 169 168 173 168 175 175 178 187 189 196 196 195 198 202 202 202 200 199 200 206 209 210 208 209 207 203 202 196 196 214 177 190 216 239 227 205 221 205 193 217 192 203 221 219 206 205 219 223
152 145 160 166 166 167 161 161 166 158 149 152 152 147 150 149 166 165 167 172 172 183 184 191 190 185 209 195 206 207 208 206 207 206 207 212 212 212 212 211 208 204 212 208 198 204 185 194 199 240 204 201 222 220 210 197 209 214 223 212 207 214 227
142 146 153 169 175 165 162 159 142 129 119 117 115 126 135 142 157 164 163 173 176 181 186 189 197 189 192 196 203 211 214 208 208 215 216 216 213 213 212 214 217 190 207 223 219 188 179 194 190 230 213 208 204 201 207 209 209 213 215 220 211 218 222
147 147 153 144 151 161 179 164 143 123 97 81 99 115 118 115 132 156 163 175 178 175 175 185 189 196 197 196 202 208 215 217 216 217 219 221 223 221 217 211 215 194 196 240 256 206 187 206 207 198 203 215 214 208 207 210 210 213 224 218 214 213 224
147 141 151 142 181 160 198 169 159 142 141 161 139 119 91 92 118 125 147 170 176 171 178 184 186 194 203 203 207 206 207 212 217 223 223 220 226 221 223 220 216 196 193 203 219 222 217 181 217 211 209 205 212 208 206 205 209 210 212 226 229 222 218
95 142 153 157 166 154 175 171 160 149 154 157 157 158 143 138 121 137 136 160 190 189 188 187 187 192 202 207 212 217 214 216 210 216 222 226 223 232 231 225 219 218 216 214 209 216 226 208 192 203 208 212 215 216 204 203 206 206 208 218 224 222 217
96 85 109 133 141 153 176 186 159 157 157 158 159 164 169 163 165 176 197 199 217 236 223 213 210 206 207 208 211 216 222 228 222 214 217 219 219 226 239 234 228 224 217 217 221 209 222 230 222 209 202 188 218 213 209 204 212 204 208 210 217 229 226
125 108 87 83 93 131 160 161 159 165 162 166 172 173 172 174 177 176 177 184 190 195 205 217 224 224 223 226 219 218 230 241 279 230 214 211 219 226 228 233 234 225 217 218 217 220 216 221 229 219 213 214 202 219 218 215 208 217 182 195 223 223 234
106 106 101 94 86 77 93 114 137 148 157 170 184 185 192 194 194 195 194 188 183 183 183 186 210 219 222 223 224 228 238 256 269 293 308 308 261 225 228 237 240 237 233 226 223 224 220 223 221 225 239 238 220 208 233 224 215 163 171 180 203 242 216
111 107 106 105 100 101 102 100 98 95 94 133 166 181 188 201 196 195 200 202 202 196 188 196 205 215 221 223 224 230 241 245 251 261 275 267 274 282 279 280 272 259 246 240 230 226 227 220 231 235 222 224 235 228 226 227 193 166 171 175 180 208 236
125 119 107 108 105 99 79 79 84 91 116 120 105 94 101 157 181 167 204 213 210 205 205 206 210 218 225 226 221 217 214 219 221 225 229 240 248 256 261 257 255 259 259 250 243 235 227 228 227 224 229 232 232 237 239 248 169 175 172 171 175 185 221
118 113 99 87 97 98 101 93 87 83 77 66 65 83 83 64 76 94 84 76 86 198 198 205 214 221 223 225 226 228 232 231 236 233 228 225 230 239 245 242 238 239 241 252 335 18 339 299 256 229 227 225 233 237 242 272 151 162 165 164 167 169 201
108 110 106 102 98 98 99 100 101 105 102 94 101 108 111 108 98 88 88 90 99 105 108 115 112 99 116 136 133 172 185 224 240 247 237 234 238 256 246 246 238 227 227 213 132 239 231 235 269 266 235 221 223 226 229 228 151 158 157 155 158 159 203
111 106 99 96 101 103 104 100 96 92 95 103 107 99 94 93 101 104 93 91 84 81 76 79 83 80 70 72 54 70 126 215 244 98 20 355 334 272 241 233 223 203 191 169 214 235 248 289 52 309 290 266 233 224 217 57 28 35 89 139 147 153 200
106 100 101 100 100 102 98 99 101 100 99 92 87 83 85 90 91 90 91 86 80 76 70 70 67 66 70 82 106 93 50 60 101 133 126 40 149 287 318 264 221 218 204 196 221 227 243 273 252 241 358 323 306 271 96 63 42 40 38 31 140 188 223
109 103 97 100 95 91 92 94 98 101 98 98 91 101 113 114 103 101 95 92 92 84 74 63 64 61 48 54 70 101 118 112 99 99 108 136 121 171 205 212 16 280 227 222 209 232 234 212 239 251 335 120 346 9 28 43 37 32 32 24 358 332 284
74 86 97 98 91 83 66 58 72 86 87 86 90 82 71 64 88 104 106 104 93 88 80 72 68 65 67 44 24 60 96 95 90 92 90 90 97 107 98 78 191 202 237 185 171 219 216 209 224 232 148 249 125 117 34 24 48 37 29 12 4 337 301
85 78 72 72 72 73 68 58 49 49 52 55 59 74 84 84 71 65 67 77 80 77 71 63 52 67 63 68 66 53 59 73 62 64 87 98 102 90 75 79 64 84 114 101 83 73 46 26 167 144 95 64 96 121 131 99 89 70 54 34 16 356 321
65 61 55 51 52 55 60 66 59 41 39 31 27 38 50 58 66 70 62 63 65 63 67 70 70 60 61 55 63 67 61 70 76 75 65 74 88 93 106 107 139 142 120 119 125 123 128 90 62 63 62 58 73 89 79 84 73 56 54 49 34 11 350
57 70 81 64 44 41 62 60 58 66 58 36 25 32 54 55 58 58 60 55 52 54 56 56 51 52 56 56 60 61 57 67 68 70 71 74 80 90 100 160 167 123 130 142 147 133 128 98 81 63 77 64 102 108 105 77 72 86 63 58 44 29 10
89 55 43 53 65 74 60 54 58 47 36 37 38 26 35 51 56 55 57 57 45 46 48 44 45 49 47 41 46 55 64 60 63 69 85 80 66 59 65 64 73 67 57 84 99 103 109 116 129 130 113 130 113 102 105 100 67 49 61 57 49 28 7
79 64 54 40 28 21 41 76 61 54 57 46 41 31 36 40 44 50 56 55 41 36 41 48 52 66 71 56 34 31 45 57 66 68 63 69 78 79 62 62 62 62 68 70 84 92 91 97 105 115 127 126 131 131 122 125 116 88 71 77 60 24 340
115 101 79 55 54 60 25 10 20 52 57 54 46 36 36 42 36 37 43 45 59 51 34 28 41 53 66 60 50 47 50 55 62 61 59 60 70 72 78 73 67 68 53 58 61 63 75 85 91 93 92 99 103 100 95 93 112 108 109 131 157 201 248
127 120 114 112 104 89 83 50 18 10 26 35 37 43 31 40 43 30 27 36 37 38 48 35 37 40 43 75 67 14 12 164 130 108 86 85 57 49 40 62 59 58 72 83 76 79 79 62 86 97 108 102 97 94 104 107 89 91 80 80 187 205 205
134 135 136 139 136 138 132 124 121 99 42 25 10 14 22 37 44 48 60 48 39 37 17 14 49 58 48 41 64 78 37 19 10 26 74 42 85 96 74 48 77 103 91 78 94 92 73 101 116 121 108 93 97 98 123 131 116 77 53 28 355 357 344
135 135 137 134 138 141 140 133 115 86 73 61 24 14 7 17 39 39 27 40 57 24 18 22 4 16 25 35 34 29 32 54 15 337 60 51 29 39 33 46 48 57 44 19 4 351 345 127 96 47 68 186 87 49 38 106 72 40 18 12 358 346 341
157 156 143 162 166 175 165 154 130 116 107 87 58 37 8 4 13 28 41 40 41 4 43 21 25 6 39 50 66 65 20 38 54 15 8 98 102 69 38 16 20 32 69 49 21 11 8 353 24 36 17 332 40 20 328 46 53 39 340 359 5 326 331
153 151 152 150 154 141 116 114 122 114 101 99 107 116 105 3 4 2 24 35 34 24 25 354 331 92 63 34 37 19 13 24 48 40 353 5 57 108 92 53 46 23 25 67 77 70 44 38 46 10 355 346 56 41 23 29 45 51 3 15 335 298 280
144 144 143 151 153 152 150 143 140 126 120 119 124 126 136 120 65 27 11 16 23 31 39 6 20 19 55 49 42 20 347 16 31 34 33 8 2 11 88 133 74 42 37 58 106 91 82 78 82 59 40 19 55 86 82 85 54 22 8 353 339 314 289
142 147 137 118 160 167 165 161 161 142 125 131 131 126 133 112 108 87 55 34 22 10 16 16 21 33 45 48 46 39 3 24 33 1 26 38 7 12 339 312 136 117 48 36 19 17 81 111 105 98 88 68 45 30 69 45 24 4 355 345 344 343 342